COSMOS 1743

Satellite information

Favourite Embed

Satellite Type and Status

PAYLOADIN ORBIT

Key statistics

Satellite COSMOS 1743 at a glance.

Uptime

14299

Days in orbit

Revolutions

≈ 15.4

Per day

Orbit

LEO

Low Earth Orbit

Inclination

82.5

Latest

Satellite identification and parameters

Extended collection of information and parameters for COSMOS 1743.

Object identification

Identified? True

Debris? False

Object name: COSMOS 1743

International designator: 1986-034A

Object number (NORAD): 16719

Object ID (CCSDS): 16719

Country: COMMONWEALTH OF INDEPENDENT STATES (CIS)

Current information (Y/N): Y

RCS size: LARGE

Orbital parameters

Period: 93.283 minutes

Inclination: 82.54 deg

SMA: 6813.344 km

Apoapsis: 440.42 km

Periapsis: 429.998 km

RAAN: 327.345 deg

Eccentricy: 0.0007648

Argument of periapsis: 98.9839 deg

Mean anomaly: 261.2275 deg

Mean motion: 15.43697859 rev/day

Mean motion (dot): 0.00014598 rev/day2

B* drag term: 0.00032236 1/REarth

Two-line elements (TLE)

Creation date: July 8, 2025, 2:27 a.m.

Reference frame: TEME

Reference center: EARTH

Epoch: July 7, 2025, 8:23 p.m. UTC

TLE line 0: 0 COSMOS 1743

TLE line 1: 1 16719U 86034A 25188.84972160 .00014598 00000-0 32236-3 0 9992

TLE line 2: 2 16719 82.5400 327.3450 0007648 98.9839 261.2275 15.43697859142324

Live tracking on map

Real-time ground track for satellite COSMOS 1743.

In-orbit conjunctions

There are no conjunctions computed for COSMOS 1743, at the moment. Check back to stay up to date, as we update our databases every day.

Go to all conjunctions

Associated space launch

Tselina-D satellites provided detailed observation of radio sources detected by the smaller Tselina-O satellites as part of the Tselina ELINT system.

COSMOS 1743 was lifted into orbit during the mission ‘Tsiklon-3 | Tselina-D 55’, on board a Tsiklon-3 space rocket.

The launch took place on May 15, 1986, 4:26 a.m. from 32/1.

For more information about the launch, click the button.

Launch to space Tsiklon-3 | Tselina-D 55
Tsiklon-3 | Tselina-D 55

Agency: N/A

Status: Launch Successful

Launch date: May 15, 1986, 4:26 a.m. UTC

Rocket: Tsiklon-3

Launch pad: 32/1

Location: Plesetsk Cosmodrome, Russian Federation

...

Latest news about this satellite

There are no fresh news available about this satellite. Check back as we update our databases every day.


Newsletter sign-up

Weekly statistics, charts and insights to help you stay on top of the space industry.